(119085) = 2001 NW15

Discovered at Palomar on 2001-07-14 by NEAT.

Orbit

Orbit type: Main Belt

Note: WebGL enabled browser required.

epoch2023-09-13.0
epoch JD2460200.5
perihelion date2023-07-02.10777
perihelion JD2460127.60777
argument of perihelion (°)354.10386
ascending node (°)345.67010
inclination (°)6.66668
eccentricity0.1481747
perihelion distance (AU)2.0039500
Tisserand w.r.t. Jupiter3.5
ΔV w.r.t. Earth (km/sec)9.0
semimajor axis (AU)2.3525362
mean anomaly (°)19.91043
mean daily motion (°/day)0.27314890
aphelion distance (AU)2.701
period (years)3.61
P-vector [x]0.93850788
P-vector [y]-0.31183505
P-vector [z]-0.14819538
Q-vector [x]0.34406009
Q-vector [y]0.80899258
Q-vector [z]0.47660640
absolute magnitude16.25
phase slope0.15
uncertainty0
referenceMPEC 2024-A141
observations used844
oppositions17
arc length (days)8706
first opposition used2000
last opposition used2024
residual rms (arc-secs)0.71
perturbers coarse indicatorM-v
perturbers precise indicator003Ek
first observation date used2000-03-11.0
last observation date used2024-01-11.0
computer nameMPCLINUX
JD of orbit computation2456731.462094
perihelion JD uncertainty (days)3.7495E-05
argument of perihelion uncertainty (°)2.8296E-05
ascending node uncertainty (°)2.6027E-05
inclination uncertainty (°)4.5875E-06
eccentricity uncertainty 4.8079E-08
perihelion distance uncertainty (AU)1.1491E-07
Minimum Orbit Intersection Distances (in AU)
for orbit epoch: 2460200.5, reference: E2024-AE1
Mercury1.60495
Venus1.27743
Earth0.99484
Mars0.62297
Jupiter2.66579
Saturn6.52206
Uranus15.7465
Neptune27.6342

Observations

860 total observations over interval: 2000 03 11.31638 – 2024 01 11.087544
These data are available for download (format description).

Date (UT) J2000 RA J2000 Dec Magn Location Ref
2000 03 11.31638 11 23 48.10 +02 56 31.9 18.5 R 699 – Lowell Observatory-LONEOS MPS 106687
2000 03 11.33829 11 23 46.62 +02 56 36.6   699 – Lowell Observatory-LONEOS MPS 106687
2000 03 11.36020 11 23 45.30 +02 56 41.4   699 – Lowell Observatory-LONEOS MPS 106688
2000 03 11.38220 11 23 43.90 +02 56 47.2   699 – Lowell Observatory-LONEOS MPS 106688
2001 07 14.40651 20 38 33.06 -28 18 08.7 18.7   644 – Palomar Mountain/NEAT MPS 32429
2001 07 14.41699 20 38 32.43 -28 18 09.5 18.4   644 – Palomar Mountain/NEAT MPS 32429
2001 07 14.42856 20 38 31.74 -28 18 10.7 18.4   644 – Palomar Mountain/NEAT MPS 32429
2001 07 20.27019 20 32 39.08 -28 25 51.1 18.2   644 – Palomar Mountain/NEAT MPS 32429
2001 07 20.27379 20 32 38.88 -28 25 51.7 18.5   644 – Palomar Mountain/NEAT MPS 32429
2001 07 20.28085 20 32 38.40 -28 25 52.0 18.5   644 – Palomar Mountain/NEAT MPS 32429
2001 07 20.28434 20 32 38.18 -28 25 52.5 18.5   644 – Palomar Mountain/NEAT MPS 32429
2001 07 20.29145 20 32 37.68 -28 25 52.6 18.7   644 – Palomar Mountain/NEAT MPS 32429
2001 07 20.29494 20 32 37.46 -28 25 53.2 18.6   644 – Palomar Mountain/NEAT MPS 32429
2001 07 26.23689 20 26 10.94 -28 28 59.9 18.2   644 – Palomar Mountain/NEAT MPS 32429
2001 07 26.24871 20 26 10.14 -28 29 00.1 18.1   644 – Palomar Mountain/NEAT MPS 32429
2001 07 26.25929 20 26 09.40 -28 29 00.2 18.1   644 – Palomar Mountain/NEAT MPS 32429
2001 07 31.26408 20 20 39.23 -28 27 09.9 18.1   644 – Palomar Mountain/NEAT MPS 32849
2001 07 31.26527 20 20 39.13 -28 27 09.6 18.4   644 – Palomar Mountain/NEAT MPS 32849
2001 07 31.27455 20 20 38.50 -28 27 09.5 18.5   644 – Palomar Mountain/NEAT MPS 32849
2001 07 31.27579 20 20 38.41 -28 27 09.3 18.6   644 – Palomar Mountain/NEAT MPS 32849
2001 07 31.28640 20 20 37.69 -28 27 08.8 18.4   644 – Palomar Mountain/NEAT MPS 32849
2001 07 31.28759 20 20 37.61 -28 27 08.6 18.5   644 – Palomar Mountain/NEAT MPS 32849
2001 08 06.22818 20 14 20.64 -28 19 12.8 18.7 R 644 – Palomar Mountain/NEAT MPS 1319693
2001 08 06.23757 20 14 19.93 -28 19 10.3 18.1 R 644 – Palomar Mountain/NEAT MPS 1319693
2001 09 10.13511 19 57 07.91 -25 45 24.1 18.1 R 699 – Lowell Observatory-LONEOS MPS 34438
2001 09 10.15064 19 57 08.09 -25 45 19.5   699 – Lowell Observatory-LONEOS MPS 34438
2001 09 10.16621 19 57 08.16 -25 45 13.1   699 – Lowell Observatory-LONEOS MPS 34438
2001 09 10.18183 19 57 08.14 -25 45 06.6   699 – Lowell Observatory-LONEOS MPS 34438
2001 09 11.14235 19 57 17.80 -25 39 06.7 19.7   704 – Lincoln Laboratory ETS, New Mexico MPS 34438
2001 09 11.15763 19 57 17.89 -25 39 01.9 19.4   704 – Lincoln Laboratory ETS, New Mexico MPS 34438
2001 09 11.17299 19 57 18.08 -25 38 55.2 20.0   704 – Lincoln Laboratory ETS, New Mexico MPS 34438
2001 09 11.18775 19 57 18.21 -25 38 50.2 19.5   704 – Lincoln Laboratory ETS, New Mexico MPS 34438
2002 11 07.414220 08 10 14.149 +27 59 32.40 20.75 V 645 – Apache Point-Sloan Digital Sky Survey MPS 106688
2002 11 07.417692 08 10 14.264 +27 59 32.62 21.74   645 – Apache Point-Sloan Digital Sky Survey MPS 106688
2002 12 06.379130 08 13 03.007 +28 50 39.12 20.11 V 645 – Apache Point-Sloan Digital Sky Survey MPS 106688
2002 12 06.382602 08 13 02.921 +28 50 39.75 21.15   645 – Apache Point-Sloan Digital Sky Survey MPS 106688
2003 01 05.30578 07 47 23.21 +30 15 24.5 19.7 C 704 – Lincoln Laboratory ETS, New Mexico MPS 291216
2003 01 05.32138 07 47 22.15 +30 15 26.0 19.2 C 704 – Lincoln Laboratory ETS, New Mexico MPS 291216
2003 01 05.35249 07 47 19.75 +30 15 29.3 19.1 C 704 – Lincoln Laboratory ETS, New Mexico MPS 291216
2003 01 05.36789 07 47 18.55 +30 15 30.9 19.2 C 704 – Lincoln Laboratory ETS, New Mexico MPS 291216
2004 04 13.37140 13 47 31.35 -19 02 37.0 19.4   644 – Palomar Mountain/NEAT MPS 104208
2004 04 13.39858 13 47 29.60 -19 02 32.3 19.3   644 – Palomar Mountain/NEAT MPS 104208
2004 04 13.42385 13 47 27.97 -19 02 28.0 19.3   644 – Palomar Mountain/NEAT MPS 104208
2004 04 14.30298 13 46 33.09 -18 59 58.2 18.8 R 699 – Lowell Observatory-LONEOS MPS 104208
2004 04 14.31738 13 46 32.24 -18 59 57.2   699 – Lowell Observatory-LONEOS MPS 104208
2004 04 14.33177 13 46 31.22 -18 59 52.6   699 – Lowell Observatory-LONEOS MPS 104208
2004 04 14.34612 13 46 30.24 -18 59 49.9   699 – Lowell Observatory-LONEOS MPS 104208
2004 04 17.55355 13 43 07.47 -18 49 43.4 18.9 R E12 – Siding Spring Survey MPS 104973
2004 04 17.55715 13 43 07.31 -18 49 43.5 18.0 R E12 – Siding Spring Survey MPS 104973
2004 04 17.56075 13 43 07.03 -18 49 42.2 19.3 R E12 – Siding Spring Survey MPS 104973
2004 04 17.56431 13 43 06.75 -18 49 42.3 19.5 R E12 – Siding Spring Survey MPS 104973
2005 08 30.30440 01 49 33.37 +15 26 48.8 19.2   704 – Lincoln Laboratory ETS, New Mexico MPS 140060
2005 08 30.31544 01 49 33.47 +15 26 52.6 19.4   704 – Lincoln Laboratory ETS, New Mexico MPS 140060
2005 08 30.32645 01 49 33.42 +15 26 56.7 19.4   704 – Lincoln Laboratory ETS, New Mexico MPS 140060
2005 08 30.33759 01 49 33.46 +15 27 01.7 20.0   704 – Lincoln Laboratory ETS, New Mexico MPS 140060
2005 08 30.34900 01 49 33.42 +15 27 05.0 19.7   704 – Lincoln Laboratory ETS, New Mexico MPS 140060
2005 09 12.34183 01 47 33.83 +16 32 03.5 19.0   704 – Lincoln Laboratory ETS, New Mexico MPS 141604
2005 09 12.35317 01 47 33.51 +16 32 06.0 19.1   704 – Lincoln Laboratory ETS, New Mexico MPS 141604
2005 09 12.36452 01 47 33.23 +16 32 09.2 19.5   704 – Lincoln Laboratory ETS, New Mexico MPS 141604
2005 09 12.37588 01 47 32.96 +16 32 11.0 19.0   704 – Lincoln Laboratory ETS, New Mexico MPS 141604
2005 09 12.38722 01 47 32.66 +16 32 13.9 19.0   704 – Lincoln Laboratory ETS, New Mexico MPS 141604
2005 09 23.34864 01 41 19.39 +17 02 59.0 19.3 R 644 – Palomar Mountain/NEAT MPS 143479
2005 09 23.37038 01 41 18.35 +17 03 01.4 19.0 R 644 – Palomar Mountain/NEAT MPS 143479
2005 09 23.39152 01 41 17.37 +17 03 03.6 18.6 R 644 – Palomar Mountain/NEAT MPS 143479
2005 09 25.29887 01 39 49.55 +17 05 54.5 19.4 V 691 – Steward Observatory, Kitt Peak-Spacewatch MPS 142503
2005 09 25.31627 01 39 48.66 +17 05 56.2 19.0 V 691 – Steward Observatory, Kitt Peak-Spacewatch MPS 142503
2005 09 25.33368 01 39 47.78 +17 05 57.4 18.7 V 691 – Steward Observatory, Kitt Peak-Spacewatch MPS 142503
2005 09 30.29312 01 35 31.78 +17 09 46.2 19.2 V 691 – Steward Observatory, Kitt Peak-Spacewatch MPS 142503
2005 09 30.31053 01 35 30.80 +17 09 46.5 19.0 V 691 – Steward Observatory, Kitt Peak-Spacewatch MPS 142503
2005 09 30.33131 01 35 29.57 +17 09 46.8 18.6 V 691 – Steward Observatory, Kitt Peak-Spacewatch MPS 142503
2005 09 30.37259 01 35 27.24 +17 09 48.3 18.0 V 703 – Catalina Sky Survey MPS 143479
2005 09 30.38193 01 35 26.59 +17 09 46.8 18.5 V 703 – Catalina Sky Survey MPS 143479
2005 09 30.39126 01 35 26.05 +17 09 47.3 18.7 V 703 – Catalina Sky Survey MPS 143479
2005 09 30.40053 01 35 25.51 +17 09 47.0 18.7 V 703 – Catalina Sky Survey MPS 143479
2005 10 02.38253 01 33 33.62 +17 09 50.7 18.2 R 644 – Palomar Mountain/NEAT MPS 143479
2005 10 02.40576 01 33 32.21 +17 09 50.3 17.9 R 644 – Palomar Mountain/NEAT MPS 143479
2005 10 02.42897 01 33 30.81 +17 09 49.9 18.0 R 644 – Palomar Mountain/NEAT MPS 143479
2005 10 03.27217 01 32 42.13 +17 09 37.1 19.2   704 – Lincoln Laboratory ETS, New Mexico MPS 143479
2005 10 03.28332 01 32 41.43 +17 09 36.0 19.0   704 – Lincoln Laboratory ETS, New Mexico MPS 143479
2005 10 03.29409 01 32 40.74 +17 09 36.8 18.8   704 – Lincoln Laboratory ETS, New Mexico MPS 143479
2005 10 03.30488 01 32 40.13 +17 09 36.1 18.8   704 – Lincoln Laboratory ETS, New Mexico MPS 143479
2005 10 06.28358 01 29 41.24 +17 07 38.0 18.8 V 691 – Steward Observatory, Kitt Peak-Spacewatch MPS 143479
2005 10 06.30100 01 29 40.12 +17 07 37.0 19.1 V 691 – Steward Observatory, Kitt Peak-Spacewatch MPS 143479
2005 10 06.31827 01 29 39.02 +17 07 36.1 19.2 V 691 – Steward Observatory, Kitt Peak-Spacewatch MPS 143479
2005 10 08.25658 01 27 38.96 +17 05 24.2 18.9   704 – Lincoln Laboratory ETS, New Mexico MPS 143479
2005 10 08.26762 01 27 38.23 +17 05 23.3 18.9   704 – Lincoln Laboratory ETS, New Mexico MPS 143479
2005 10 08.27844 01 27 37.50 +17 05 22.1 18.5   704 – Lincoln Laboratory ETS, New Mexico MPS 143479
2005 10 08.28075 01 27 37.40 +17 05 21.3 18.1 V 703 – Catalina Sky Survey MPS 143479
